When you browse on this site, cookies collect data to enhance your experience and personalize the content and advertising you see.
Visit our Privacy Policy to learn more. By continuing to use the site, you agree to this use of cookies and data.
  • In Romania
  • List of Countries
  • For 7 days
  • Water Temperature
  • Satellite Maps
  • Weather Map
  • Weather Widgets
  • user-avatar
    Login

    Hourly Weather Kulikovka

    Today, 22 April, Monday

    Time Temperature Precipitation Wind Pressure Humidity
    00:00 +11°C° 0 mm 1 mps 756 mmHg 43%
    01:00 +10°C° 0 mm 1 mps 756 mmHg 44%
    02:00 +10°C° 0 mm 1 mps 756 mmHg 46%
    03:00 +9°C° 0 mm 1 mps 756 mmHg 47%
    04:00 +9°C° 0 mm 1 mps 756 mmHg 49%
    05:00 +8°C° 0 mm 1 mps 757 mmHg 51%
    06:00 +8°C° 0 mm 1 mps 757 mmHg 53%
    07:00 +9°C° 0 mm 2 mps 757 mmHg 49%
    08:00 +10°C° 0 mm 2 mps 757 mmHg 45%
    09:00 +14°C° 0 mm 2 mps 758 mmHg 40%
    10:00 +15°C° 0 mm 2 mps 757 mmHg 36%
    11:00 +16°C° 0 mm 2 mps 757 mmHg 32%
    12:00 +17°C° 0 mm 3 mps 757 mmHg 28%
    13:00 +17°C° 0 mm 3 mps 757 mmHg 29%
    14:00 +17°C° 0 mm 3 mps 757 mmHg 30%
    15:00 +17°C° 0 mm 3 mps 757 mmHg 30%
    16:00 +17°C° 0 mm 3 mps 757 mmHg 32%
    17:00 +17°C° 0 mm 3 mps 757 mmHg 34%
    18:00 +16°C° 0 mm 3 mps 757 mmHg 36%
    19:00 +15°C° 0 mm 2 mps 757 mmHg 40%
    20:00 +14°C° 0 mm 2 mps 757 mmHg 44%
    21:00 +13°C° 0 mm 1 mps 757 mmHg 47%
    22:00 +12°C° 0 mm 1 mps 757 mmHg 49%
    23:00 +12°C° 0 mm 1 mps 757 mmHg 50%

    Tomorrow, 23 April, Tuesday

    Time Temperature Precipitation Wind Pressure Humidity
    00:00 +11°C° 0 mm 1 mps 758 mmHg 51%
    01:00 +11°C° 0 mm 1 mps 758 mmHg 51%
    02:00 +10°C° 0 mm 2 mps 758 mmHg 51%
    03:00 +10°C° 0 mm 2 mps 758 mmHg 52%
    04:00 +10°C° 0 mm 2 mps 758 mmHg 53%
    05:00 +10°C° 0 mm 2 mps 758 mmHg 55%
    06:00 +10°C° 0 mm 2 mps 758 mmHg 57%
    07:00 +12°C° 0 mm 2 mps 758 mmHg 54%
    08:00 +13°C° 0 mm 2 mps 758 mmHg 52%
    09:00 +13°C° 0 mm 3 mps 758 mmHg 49%
    10:00 +14°C° 0 mm 3 mps 758 mmHg 44%
    11:00 +17°C° 0 mm 4 mps 758 mmHg 40%
    12:00 +18°C° 0 mm 4 mps 758 mmHg 35%
    13:00 +18°C° 0 mm 4 mps 758 mmHg 34%
    14:00 +19°C° 0 mm 4 mps 757 mmHg 34%
    15:00 +19°C° 0 mm 5 mps 757 mmHg 33%
    16:00 +19°C° 0 mm 4 mps 757 mmHg 35%
    17:00 +18°C° 0 mm 4 mps 757 mmHg 38%
    18:00 +18°C° 0 mm 4 mps 756 mmHg 40%
    19:00 +17°C° 0 mm 3 mps 756 mmHg 44%
    20:00 +16°C° 0 mm 3 mps 757 mmHg 47%
    21:00 +16°C° 0 mm 3 mps 757 mmHg 51%
    22:00 +14°C° 0 mm 3 mps 757 mmHg 53%
    23:00 +13°C° 0 mm 3 mps 757 mmHg 56%

    Day after tomorrow, 24 April, Wednesday

    Time Temperature Precipitation Wind Pressure Humidity
    00:00 +13°C° 0 mm 3 mps 757 mmHg 59%
    01:00 +12°C° 0 mm 3 mps 757 mmHg 60%
    02:00 +11°C° 0 mm 3 mps 757 mmHg 62%
    03:00 +10°C° 0 mm 3 mps 757 mmHg 64%
    04:00 +10°C° 0 mm 3 mps 757 mmHg 66%
    05:00 +10°C° 0 mm 3 mps 757 mmHg 68%
    06:00 +9°C° 0 mm 3 mps 757 mmHg 70%
    07:00 +11°C° 0 mm 3 mps 757 mmHg 65%
    08:00 +13°C° 0 mm 3 mps 757 mmHg 60%
    09:00 +14°C° 0 mm 4 mps 758 mmHg 55%
    10:00 +17°C° 0 mm 4 mps 757 mmHg 50%
    11:00 +18°C° 0 mm 4 mps 757 mmHg 45%
    12:00 +19°C° 0 mm 5 mps 757 mmHg 40%
    13:00 +20°C° 0 mm 5 mps 757 mmHg 38%
    14:00 +21°C° 0 mm 5 mps 757 mmHg 37%
    15:00 +21°C° 0 mm 5 mps 756 mmHg 36%
    16:00 +21°C° 0 mm 4 mps 756 mmHg 37%
    17:00 +21°C° 0 mm 4 mps 756 mmHg 39%
    18:00 +20°C° 0 mm 4 mps 756 mmHg 41%
    19:00 +19°C° 0 mm 3 mps 756 mmHg 45%
    20:00 +17°C° 0 mm 3 mps 756 mmHg 49%
    21:00 +16°C° 0 mm 3 mps 756 mmHg 53%
    22:00 +14°C° 0 mm 3 mps 756 mmHg 55%
    23:00 +14°C° 0 mm 3 mps 756 mmHg 58%

    25 April, Thursday

    Time Temperature Precipitation Wind Pressure Humidity
    00:00 +13°C° 0 mm 3 mps 756 mmHg 60%
    01:00 +12°C° 0 mm 3 mps 756 mmHg 62%
    02:00 +12°C° 0 mm 3 mps 757 mmHg 64%
    03:00 +12°C° 0 mm 2 mps 757 mmHg 66%
    04:00 +12°C° 0 mm 2 mps 757 mmHg 68%
    05:00 +12°C° 0 mm 2 mps 757 mmHg 69%
    06:00 +12°C° 0 mm 2 mps 757 mmHg 71%
    07:00 +12°C° 0 mm 3 mps 757 mmHg 65%
    08:00 +14°C° 0 mm 3 mps 757 mmHg 60%
    09:00 +17°C° 0 mm 3 mps 757 mmHg 54%
    10:00 +18°C° 0 mm 3 mps 757 mmHg 50%
    11:00 +20°C° 0 mm 3 mps 757 mmHg 45%
    12:00 +21°C° 0 mm 4 mps 757 mmHg 40%
    13:00 +22°C° 0 mm 4 mps 757 mmHg 39%
    14:00 +22°C° 0 mm 4 mps 756 mmHg 37%
    15:00 +23°C° 0 mm 4 mps 756 mmHg 36%
    16:00 +22°C° 0 mm 3 mps 756 mmHg 37%
    17:00 +22°C° 0 mm 3 mps 756 mmHg 39%
    18:00 +21°C° 0 mm 3 mps 755 mmHg 40%
    19:00 +20°C° 0 mm 3 mps 755 mmHg 43%
    20:00 +18°C° 0 mm 2 mps 755 mmHg 46%
    21:00 +17°C° 0 mm 2 mps 756 mmHg 49%
    22:00 +16°C° 0 mm 2 mps 756 mmHg 50%
    23:00 +16°C° 0 mm 1 mps 756 mmHg 51%

    26 April, Friday

    Time Temperature Precipitation Wind Pressure Humidity
    00:00 +15°C° 0 mm 1 mps 756 mmHg 51%
    01:00 +15°C° 0 mm 1 mps 756 mmHg 53%
    02:00 +14°C° 0 mm 1 mps 755 mmHg 54%
    03:00 +14°C° 0 mm 1 mps 755 mmHg 55%
    04:00 +13°C° 0 mm 0 mps 755 mmHg 56%
    05:00 +13°C° 0 mm 0 mps 755 mmHg 57%
    06:00 +13°C° 0 mm 0 mps 755 mmHg 58%
    07:00 +14°C° 0 mm 0 mps 755 mmHg 53%
    08:00 +16°C° 0 mm 0 mps 755 mmHg 49%
    09:00 +17°C° 0 mm 0 mps 756 mmHg 45%
    10:00 +20°C° 0 mm 1 mps 755 mmHg 42%
    11:00 +22°C° 0 mm 1 mps 755 mmHg 38%
    12:00 +23°C° 0 mm 1 mps 755 mmHg 35%
    13:00 +23°C° 0 mm 1 mps 755 mmHg 35%
    14:00 +23°C° 0 mm 1 mps 754 mmHg 34%
    15:00 +23°C° 0 mm 1 mps 754 mmHg 34%
    16:00 +22°C° 0 mm 1 mps 754 mmHg 38%
    17:00 +22°C° 0 mm 1 mps 754 mmHg 43%
    18:00 +21°C° 0 mm 1 mps 753 mmHg 47%
    19:00 +20°C° 0.3 mm 1 mps 753 mmHg 53%
    20:00 +19°C° 0.3 mm 1 mps 753 mmHg 58%
    21:00 +16°C° 0.3 mm 1 mps 753 mmHg 63%
    22:00 +16°C° 1.4 mm 1 mps 753 mmHg 69%
    23:00 +15°C° 1.4 mm 1 mps 753 mmHg 75%

    27 April, Saturday

    Time Temperature Precipitation Wind Pressure Humidity
    00:00 +14°C° 1.4 mm 1 mps 753 mmHg 81%
    01:00 +14°C° 0.5 mm 1 mps 753 mmHg 82%
    02:00 +14°C° 0.5 mm 1 mps 753 mmHg 83%
    03:00 +14°C° 0.5 mm 1 mps 752 mmHg 84%
    04:00 +13°C° 0 mm 2 mps 752 mmHg 84%
    05:00 +13°C° 0 mm 2 mps 752 mmHg 84%
    06:00 +13°C° 0 mm 2 mps 752 mmHg 84%
    07:00 +15°C° 0.1 mm 2 mps 752 mmHg 78%
    08:00 +16°C° 0.1 mm 2 mps 752 mmHg 72%
    09:00 +18°C° 0.1 mm 2 mps 752 mmHg 66%
    10:00 +19°C° 0.3 mm 3 mps 752 mmHg 59%
    11:00 +20°C° 0.3 mm 3 mps 751 mmHg 52%
    12:00 +21°C° 0.3 mm 3 mps 751 mmHg 46%
    13:00 +21°C° 0 mm 3 mps 751 mmHg 46%
    14:00 +21°C° 0 mm 3 mps 751 mmHg 47%
    15:00 +21°C° 0 mm 4 mps 750 mmHg 48%
    16:00 +20°C° 0.1 mm 3 mps 750 mmHg 51%
    17:00 +20°C° 0.1 mm 3 mps 750 mmHg 54%
    18:00 +20°C° 0.1 mm 2 mps 750 mmHg 57%
    19:00 +18°C° 0.4 mm 2 mps 750 mmHg 61%
    20:00 +17°C° 0.4 mm 2 mps 750 mmHg 64%
    21:00 +16°C° 0.4 mm 2 mps 750 mmHg 68%
    22:00 +16°C° 0.1 mm 2 mps 750 mmHg 71%
    23:00 +15°C° 0.1 mm 2 mps 749 mmHg 75%
    Show more